Seldovia, AK

2:39 PM AKDT on September 24, 2017 (GMT -0800)
Seldovia

Weather History for PASO - December, 2011

Change the Weather History Date:

Wednesday, December 7, 2011

  Actual Average (PAHO) Record (PAHO)
Temperature  
Mean Temperature 35 °F -  
Max Temperature 37 °F 30 °F 49 °F (1978)
Min Temperature 33 °F 18 °F -9 °F (1975)
Degree Days  
Heating Degree Days 30    
Moisture  
Dew Point 32 °F    
Average Humidity 92    
Maximum Humidity 100    
Minimum Humidity 55    
Precipitation  
Precipitation 0.23 in - - ()
Sea Level Pressure  
Sea Level Pressure 29.94 in    
Wind  
Wind Speed 2 mph (NE)    
Max Wind Speed 8 mph    
Max Gust Speed 30 mph    
Visibility 8 miles    
Events Rain , Snow    
Averages and records for this station are not official NWS values.
T = Trace of Precipitation, MM = Missing Value Source: NWS Daily Summary

Daily Weather History Graph

Daily Weather History Graph

Search for Another Location

Airport or City:

Trip Planner

Search our weather history database for the weather conditions in past years. The results will help you decide how hot, cold, wet, or windy it might be!

Date:

Astronomy

Dec. 07, 2011 Rise Set
Actual Time 9:48 AM AKST 4:08 PM AKST
Civil Twilight 8:53 AM AKST 5:02 PM AKST
Nautical Twilight 7:59 AM AKST 5:57 PM AKST
Astronomical Twilight 7:09 AM AKST 6:47 PM AKST
Moon 2:30 PM AKST (12/7) 6:54 AM AKST (12/7)
Length of Visible Light 8h 08m
Length of Day
6h 20m
Waxing Gibbous, 93% of the Moon is Illuminated
Dec 7
Waxing Gibbous
Dec 10
Full
Dec 17
Last Quarter
Dec 24
New
Dec 31
First Quarter

Hourly Weather History & Observations

Time (AKST) Temp. Windchill Dew Point Humidity Pressure Visibility Wind Dir Wind Speed Gust Speed Precip Events Conditions
12:53 AM 37.9 °F 35.5 °F 23.0 °F 55% 30.30 in 10.0 mi Variable 3.5 mph 29.9 mph N/A   Mostly Cloudy
1:53 AM 37.9 °F 32.1 °F 24.1 °F 57% 30.28 in 10.0 mi SSE 8.1 mph - N/A   Overcast
3:53 AM 37.9 °F 35.5 °F 25.0 °F 60% 30.24 in 10.0 mi Variable 3.5 mph - N/A   Overcast
4:53 AM 37.9 °F 34.4 °F 27.0 °F 65% 30.21 in 10.0 mi Variable 4.6 mph - 0.00 in Rain Light Rain
5:53 AM 35.1 °F 28.6 °F 30.0 °F 82% 30.16 in 10.0 mi North 8.1 mph - 0.00 in   Overcast
6:53 AM 35.1 °F - 30.9 °F 85% 30.07 in 10.0 mi Calm Calm - N/A   Overcast
7:53 AM 36.0 °F 32.1 °F 30.0 °F 79% 30.06 in 10.0 mi Variable 4.6 mph - N/A   Overcast
8:46 AM 35.6 °F - 30.2 °F 81% 30.06 in 10.0 mi Calm Calm - 0.00 in Rain Light Rain
8:53 AM 36.0 °F 33.3 °F 30.9 °F 82% 30.05 in 10.0 mi East 3.5 mph - 0.00 in Rain Light Rain
9:26 AM 33.8 °F - 32.0 °F 93% 30.03 in 5.0 mi Calm Calm - 0.01 in Snow Light Snow
9:53 AM 33.1 °F - 32.0 °F 96% 30.02 in 3.0 mi Calm Calm - 0.02 in Snow Light Snow
10:04 AM 33.8 °F - 32.0 °F 93% 30.00 in 2.5 mi Calm Calm - 0.01 in Snow Light Snow
10:14 AM 33.8 °F - 32.0 °F 93% 29.99 in 3.0 mi Calm Calm - 0.02 in Snow Light Snow
10:35 AM 33.8 °F - 33.8 °F 100% 29.97 in 4.0 mi Calm Calm - 0.03 in Snow Light Snow
10:40 AM 33.8 °F 30.8 °F 32.0 °F 93% 29.96 in 4.0 mi NNE 3.5 mph - 0.03 in Snow Light Snow
10:51 AM 33.8 °F - 32.0 °F 93% 29.96 in 6.0 mi Calm Calm - 0.03 in Snow Light Snow
10:53 AM 33.1 °F - 32.0 °F 96% 29.96 in 5.0 mi Calm Calm - 0.03 in Snow Light Snow
11:35 AM 33.8 °F 30.8 °F 33.8 °F 100% 29.92 in 10.0 mi NE 3.5 mph - 0.00 in Rain Light Rain
11:53 AM 34.0 °F - 33.1 °F 96% 29.91 in 10.0 mi Calm Calm - 0.00 in   Overcast
12:53 PM 35.1 °F - 34.0 °F 96% 29.87 in 7.0 mi Calm Calm - 0.01 in Rain Light Rain
1:41 PM 35.6 °F - 33.8 °F 93% 29.85 in 4.0 mi Calm Calm - 0.05 in Rain Rain
1:53 PM 34.0 °F - 34.0 °F 100% 29.85 in 4.0 mi Calm Calm - 0.06 in Rain Light Rain
2:24 PM 33.8 °F - 33.8 °F 100% 29.86 in 2.5 mi Calm Calm - 0.05 in Rain Rain
2:34 PM 33.8 °F - 33.8 °F 100% 29.85 in 4.0 mi Calm Calm - 0.06 in Rain Light Rain
2:43 PM 33.8 °F 29.6 °F 33.8 °F 100% 29.83 in 5.0 mi NE 4.6 mph - 0.07 in Rain Light Rain
2:53 PM 34.0 °F - 34.0 °F 100% 29.84 in 5.0 mi Calm Calm - 0.08 in Rain Light Rain
3:53 PM 34.0 °F - 34.0 °F 100% 29.82 in 10.0 mi Calm Calm - 0.01 in Rain Light Rain
4:05 PM 33.8 °F 30.8 °F 33.8 °F 100% 29.82 in 10.0 mi NNE 3.5 mph - 0.00 in   Overcast
4:39 PM 33.8 °F - 33.8 °F 100% 29.83 in 9.0 mi Calm Calm - 0.00 in Rain Light Rain
4:53 PM 34.0 °F - 34.0 °F 100% 29.84 in 10.0 mi Calm Calm - 0.01 in Rain Light Rain
5:07 PM 33.8 °F - 33.8 °F 100% 29.84 in 10.0 mi Calm Calm - 0.00 in Rain Light Rain
5:20 PM 35.6 °F - 33.8 °F 93% 29.84 in 10.0 mi Calm Calm - 0.00 in Rain Light Rain
5:53 PM 34.0 °F - 34.0 °F 100% 29.85 in 10.0 mi Calm Calm - 0.01 in Rain Light Rain
6:53 PM 34.0 °F - 34.0 °F 100% 29.83 in 10.0 mi Calm Calm - 0.00 in   Overcast
7:31 PM 33.8 °F - 33.8 °F 100% 29.81 in 10.0 mi Calm Calm - N/A   Scattered Clouds
7:53 PM 33.1 °F - 33.1 °F 100% 29.82 in 10.0 mi Calm Calm - N/A   Partly Cloudy
8:53 PM 34.0 °F - 34.0 °F 100% 29.81 in 10.0 mi Calm Calm - N/A   Overcast
9:53 PM 34.0 °F - 34.0 °F 100% 29.83 in 10.0 mi Calm Calm - N/A   Overcast
10:53 PM 34.0 °F - 34.0 °F 100% 29.83 in 10.0 mi Calm Calm - N/A   Overcast
11:53 PM 34.0 °F - 34.0 °F 100% 29.81 in 9.0 mi Calm Calm - N/A   Overcast